Location: Newark
(25.4297°S, 49.2719°W)
Time: 13:53:36
(UTC+00:00)

Explorer 11/Cluster Stage 4 - All Passes

Search period start: 21 November 2019 00:00
Search period end: 01 December 2019 00:00
Orbit: 467 x 1259 km, 28.8° (Epoch: 20 November)

Date Brightness Start Highest point End Pass type
(mag) Time Alt. Az. Time Alt. Az. Time Alt. Az.
21 Nov - 06:29:55 10° N 06:34:54 18° NNE 06:39:37 10° ENE visible
21 Nov - 08:16:31 10° NW 08:23:56 47° NNE 08:30:12 10° E daylight
21 Nov - 10:05:48 10° WNW 10:12:59 85° SSW 10:18:42 10° ESE daylight
21 Nov - 11:55:58 10° W 12:02:01 60° S 12:06:48 10° E daylight
21 Nov - 13:45:40 10° WSW 13:50:48 83° SSE 13:54:56 10° ENE daylight
21 Nov - 15:35:12 10° W 15:38:52 28° NNW 15:42:09 10° NNE daylight
22 Nov - 06:18:15 10° NNW 06:24:04 21° NNE 06:29:33 10° ENE visible
22 Nov - 08:05:25 10° NW 08:13:08 54° NNE 08:19:43 10° E daylight
22 Nov - 09:54:55 10° W 10:02:17 80° SSW 10:08:12 10° ESE daylight
22 Nov - 11:45:07 10° W 11:51:26 62° S 11:56:25 10° E daylight
22 Nov - 13:34:53 10° WSW 13:40:15 88° NNW 13:44:32 10° ENE daylight
22 Nov - 15:24:42 10° W 15:28:16 24° NNW 15:31:25 10° NNE daylight
23 Nov - 06:06:47 10° NNW 06:13:12 25° NNE 06:19:18 10° E visible
23 Nov - 07:54:21 10° WNW 08:02:18 61° NNE 08:09:11 10° E visible
23 Nov - 09:44:02 10° W 09:51:35 76° S 09:57:43 10° ESE daylight
23 Nov - 11:34:16 10° WSW 11:40:50 64° S 11:46:01 10° E daylight
23 Nov - 13:24:05 10° WSW 13:29:40 78° NNW 13:34:06 10° ENE daylight
23 Nov - 15:14:14 10° W 15:17:37 20° NNW 15:20:37 10° NNE daylight
24 Nov - 05:55:26 10° NNW 06:02:19 29° NNE 06:08:54 10° E visible
24 Nov - 07:43:20 10° WNW 07:51:28 68° NNE 07:58:38 10° ESE visible
24 Nov - 09:33:09 10° W 09:40:52 73° S 09:47:12 10° ESE daylight
24 Nov - 11:23:24 10° WSW 11:30:13 67° S 11:35:36 10° E daylight
24 Nov - 13:13:16 10° WSW 13:19:03 69° NNW 13:23:37 10° ENE daylight
24 Nov - 15:03:50 10° WNW 15:06:57 17° NNW 15:09:44 10° N daylight
25 Nov - 05:44:12 10° NNW 05:51:24 34° NNE 05:58:26 10° E visible
25 Nov - 07:32:22 10° WNW 07:40:38 75° NNE 07:48:00 10° ESE visible
25 Nov - 09:22:16 10° W 09:30:08 71° S 09:36:40 10° ESE daylight
25 Nov - 11:12:31 10° WSW 11:19:35 70° S 11:25:11 10° E daylight
25 Nov - 13:02:26 10° W 13:08:24 61° NNW 13:13:07 10° ENE daylight
25 Nov - 14:53:31 10° WNW 14:56:14 15° NW 14:58:44 10° N daylight
26 Nov - 03:48:49 10° NNE 03:51:42 12° NE 03:54:38 10° ENE visible
26 Nov - 05:33:03 10° NW 05:40:30 39° NNE 05:47:51 10° E visible
26 Nov - 07:21:27 10° WNW 07:29:47 82° NNE 07:37:22 10° ESE visible
26 Nov - 09:11:25 10° W 09:19:24 69° S 09:26:08 10° ESE daylight
26 Nov - 11:01:37 10° WSW 11:08:55 75° S 11:14:44 10° E daylight
26 Nov - 12:51:36 10° W 12:57:44 53° NNW 13:02:35 10° NE daylight
26 Nov - 14:43:20 10° WNW 14:45:31 13° NW 14:47:32 10° N daylight
27 Nov - 03:36:49 10° N 03:40:48 15° NE 03:44:55 10° ENE visible
27 Nov - 05:21:59 10° NW 05:29:34 44° NNE 05:37:13 10° E visible
27 Nov - 07:10:34 10° WNW 07:18:56 88° NNE 07:26:42 10° ESE visible
27 Nov - 09:00:33 10° W 09:08:39 68° S 09:15:35 10° E daylight
27 Nov - 10:50:42 10° WSW 10:58:13 80° SSE 11:04:15 10° E daylight
27 Nov - 12:40:46 10° W 12:47:01 47° NNW 12:52:00 10° NE daylight
27 Nov - 14:33:35 10° NW 14:34:46 11° NW 14:35:55 10° NNW daylight
28 Nov - 03:25:14 10° N 03:29:52 17° NE 03:34:48 10° ENE visible
28 Nov - 05:11:00 10° NW 05:18:38 49° NNE 05:26:31 10° E visible
28 Nov - 06:59:43 10° WNW 07:08:05 87° SSW 07:16:00 10° ESE visible
28 Nov - 08:49:42 10° W 08:57:53 68° S 09:05:01 10° E daylight
28 Nov - 10:39:47 10° WSW 10:47:30 85° SSE 10:53:45 10° ENE daylight
28 Nov - 12:29:57 10° W 12:36:16 42° NNW 12:41:21 10° NE daylight
29 Nov - 03:13:51 10° N 03:18:58 20° NE 03:24:28 10° ENE visible
29 Nov - 05:00:05 10° NW 05:07:42 55° NNE 05:15:47 10° E visible
29 Nov - 06:48:55 10° W 06:57:14 83° SSW 07:05:16 10° ESE visible
29 Nov - 08:38:52 10° W 08:47:07 69° S 08:54:25 10° E daylight
29 Nov - 10:28:53 10° WSW 10:36:45 89° NNW 10:43:13 10° ENE daylight
29 Nov - 12:19:08 10° W 12:25:28 37° NNW 12:30:39 10° NE daylight
30 Nov - 03:02:38 10° NNW 03:08:02 23° NE 03:13:59 10° E visible
30 Nov - 04:49:13 10° NW 04:56:48 61° NNE 05:04:59 10° E visible
30 Nov - 06:38:09 10° W 06:46:23 79° S 06:54:32 10° ESE visible
30 Nov - 08:28:01 10° W 08:36:20 70° S 08:43:50 10° E daylight
30 Nov - 10:17:57 10° WSW 10:25:58 83° NNW 10:32:38 10° ENE daylight
30 Nov - 12:08:22 10° W 12:14:40 33° NNW 12:19:53 10° NNE daylight
